Regional Weather Roundup
Issued by NWS

Home | Current Version | Previous Version | Graphics & Text | Print | Product List | Glossary Off
Versions: 1 2 3 4 5 6 7 8 9 10 11 12 13 14 15 16 17 18 19 20 21 22 23 24 25 26 27 28 29 30 31 32 33 34 35 36 37 38 39 40 41 42 43 44 45 46 47 48 49 50

000
ASUS43 KTOP 020308
RWRKS

WEATHER ROUNDUP FOR KANSAS
NATIONAL WEATHER SERVICE GOODLAND KS
1000 PM CDT SUN MAY 01 2016

NOTE:  "FAIR" INDICATES FEW OR NO CLOUDS BELOW 12,000 FEET WITH NO
SIGNIFICANT WEATHER AND/OR OBSTRUCTIONS TO VISIBILITY.

KSZ001>006-013>018-027>032-041>047-020400-
NORTHWEST KANSAS

CITY           SKY/WX    TMP DP  RH WIND       PRES   REMARKS
GOODLAND       CLEAR     38  32  79 NW10      30.23S WCI  31
HAYS           CLOUDY    45  34  65 N7        30.21S
HILL CITY      CLOUDY    46  40  79 CALM      30.22R
RUSSELL        CLOUDY    46  41  82 N9        30.19R
$$

KSZ061>065-074>080-084>089-020400-
SOUTHWEST KANSAS

CITY           SKY/WX    TMP DP  RH WIND       PRES   REMARKS
DODGE CITY     CLOUDY    44  39  82 N5        30.23R
ELKHART          N/A     42  39  89 W3          N/A
GARDEN CITY    CLOUDY    43  39  86 NW3       30.22R
GREAT BEND     CLOUDY    46  37  71 N8        30.21R
LIBERAL        CLOUDY    45  39  81 W5        30.25R
PRATT          CLOUDY    44  38  80 N8        30.21R
$$

KSZ066>073-081>083-090>101-020400-
SOUTHEAST KANSAS

CITY           SKY/WX    TMP DP  RH WIND       PRES   REMARKS
CHANUTE        CLOUDY    54  45  71 N10       30.12R
COFFEYVILLE    CLOUDY    57  48  72 NW8       30.12R
HUTCHINSON     CLOUDY    49  41  74 N8        30.19R
MEDICINE LODGE   N/A     48  43  82 N8        30.19R
NEWTON         CLOUDY    46  37  71 N9        30.19R
PARSONS        CLOUDY    56  49  77 NW13      30.13R
WICHITA INTL   CLOUDY    51  41  68 N14       30.17R
WICHITA JABRA  CLOUDY    49  42  77 N10       30.17R
WICHITA MCCONL CLOUDY    50  42  74 N13       30.17R
WINFIELD       CLOUDY    51  44  77 N7        30.17R
$$

KSZ007>012-019>026-033>040-048>060-102>105-020400-
NORTHEAST KANSAS

CITY           SKY/WX    TMP DP  RH WIND       PRES   REMARKS
CONCORDIA      CLOUDY    47  42  83 NW3       30.19R
EMPORIA        CLOUDY    50  43  77 N6        30.15R
LAWRENCE       CLOUDY    50  44  80 N8        30.14R
MANHATTAN      CLOUDY    49  41  74 N6        30.16R
MARYSVILLE     CLOUDY    46  43  87 N9        30.15R
OLATHE IND     CLOUDY    49  44  83 N12       30.12R
OLATHE EXE     CLOUDY    50  44  80 N9        30.11R
SALINA         CLOUDY    49  42  77 N10       30.19R
TOPEKA BILLARD CLOUDY    50  42  74 N12       30.14R
TOPEKA FORBES  CLOUDY    51  43  74 N7        30.13R
$$



USA.gov is the U.S. government's official web portal to all federal, state and local government web resources and services.